Terminal Aerodrome Forecast
Issued by NWS Mt. Holly, NJ

Home | Current Version | Previous Version | Text Only | Print | Product List | Glossary On
Versions: 1 2 3 4 5 6 7 8 9 10 11 12 13 14
000
FTUS41 KPHI 231400 AAA
TAFABE
TAF AMD
KABE 231437Z 2315/2412 31020G30KT P6SM BKN035
      TEMPO 2320/2324 SCT040
     FM240000 31015G25KT P6SM SCT250
     FM240700 29015KT P6SM SKC=

USA.gov is the U.S. government's official web portal to all federal, state and local government web resources and services.